| time (UTC) | temp F | wind direction | speed knots | gust knots | rain 1hr in | rain 24hr in | rain mn in | humidity % | barometer mb |
| 20260506131535 | 45 | 53 | 0.9 | 1.7 | 0.00 | 0.44 | 0.44 | 57 | 952.3 |
| 20260506130515 | 45 | 43 | 1.7 | 4.3 | 0.00 | 0.44 | 0.44 | 57 | 952.3 |
| 20260506125515 | 45 | 54 | 3.5 | 5.2 | 0.00 | 0.44 | 0.44 | 57 | 952.3 |
| 20260506124536 | 44 | 340 | 1.7 | 3.5 | 0.00 | 0.44 | 0.44 | 58 | 952.4 |
| 20260506123515 | 44 | 11 | 4.3 | 7.8 | 0.00 | 0.44 | 0.44 | 61 | 952.5 |
| 20260506122515 | 44 | 342 | 5.2 | 8.7 | 0.00 | 0.44 | 0.44 | 61 | 952.6 |
| 20260506121515 | 44 | 324 | 4.3 | 5.2 | 0.00 | 0.44 | 0.44 | 60 | 952.6 |
| 20260506120535 | 45 | 306 | 1.7 | 3.5 | 0.24 | 0.44 | 0.44 | 58 | 952.6 |
| 20260506115515 | 46 | 338 | 2.6 | 5.2 | 0.24 | 0.44 | 0.44 | 56 | 952.6 |
| 20260506114516 | 46 | 348 | 0.9 | 14.8 | 0.24 | 0.44 | 0.44 | 52 | 952.7 |
| 20260506113516 | 44 | 348 | 2.6 | 5.2 | 0.24 | 0.44 | 0.44 | 57 | 952.7 |
| 20260506112515 | 45 | 352 | 2.6 | 6.1 | 0.24 | 0.44 | 0.44 | 56 | 952.7 |
| 20260506111516 | 48 | 352 | 0.9 | 4.3 | 0.24 | 0.44 | 0.44 | 51 | 952.7 |
| 20260506110516 | 45 | 344 | 0.9 | 3.5 | 0.00 | 0.20 | 0.20 | 58 | 952.7 |
| 20260506105515 | 43 | 50 | 1.7 | 5.2 | 0.00 | 0.20 | 0.20 | 62 | 952.7 |
| 20260506104515 | 43 | 326 | 4.3 | 6.1 | 0.00 | 0.44 | 0.20 | 65 | 952.7 |
| 20260506103515 | 43 | 354 | 4.3 | 7.8 | 0.00 | 0.44 | 0.20 | 65 | 952.7 |
| 20260506102515 | 44 | 341 | 3.5 | 6.1 | 0.00 | 0.44 | 0.20 | 63 | 952.8 |
| 20260506101515 | 44 | 354 | 1.7 | 3.5 | 0.00 | 0.44 | 0.20 | 61 | 952.8 |
| 20260506100535 | 43 | 9 | 1.7 | 6.1 | 0.00 | 0.44 | 0.20 | 60 | 952.8 |
| 20260506095515 | 46 | 22 | 2.6 | 7.0 | 0.00 | 0.44 | 0.20 | 54 | 952.7 |
| 20260506094515 | 43 | 47 | 0.9 | 3.5 | 0.00 | 0.44 | 0.20 | 65 | 952.8 |
| 20260506093515 | 42 | 336 | 5.2 | 8.7 | 0.00 | 0.67 | 0.20 | 64 | 952.7 |
| 20260506092535 | 44 | 17 | 2.6 | 5.2 | 0.00 | 0.67 | 0.20 | 57 | 952.6 |
| 20260506091515 | 43 | 7 | 5.2 | 10.4 | 0.00 | 0.67 | 0.20 | 63 | 952.6 |
| 20260506090515 | 44 | 71 | 5.2 | 8.7 | 0.00 | 0.67 | 0.20 | 59 | 952.6 |
| 20260506085515 | 43 | 62 | 5.2 | 10.4 | 0.00 | 0.67 | 0.20 | 61 | 952.5 |
| 20260506084515 | 45 | 66 | 2.6 | 8.7 | 0.00 | 0.67 | 0.20 | 54 | 952.4 |
| 20260506083515 | 43 | 62 | 5.2 | 11.3 | 0.00 | 0.67 | 0.20 | 56 | 952.3 |
| 20260506082515 | 44 | 62 | 3.5 | 7.8 | 0.00 | 0.67 | 0.20 | 58 | 952.3 |
| 20260506081514 | 43 | 6 | 1.7 | 4.3 | 0.00 | 0.67 | 0.20 | 56 | 952.2 |
| 20260506080535 | 42 | 359 | 2.6 | 5.2 | 0.00 | 0.67 | 0.20 | 59 | 952.2 |
| 20260506073515 | 45 | 20 | 2.6 | 6.1 | 0.00 | 3.23 | 0.20 | 52 | 952.1 |
| 20260506072515 | 45 | 199 | 2.6 | 4.3 | 0.00 | 3.23 | 0.20 | 49 | 952.1 |
| 20260506071515 | 44 | 235 | 1.7 | 5.2 | 0.00 | 3.23 | 0.20 | 50 | 952.1 |
| 20260506070516 | 44 | 333 | 0.9 | 5.2 | 0.00 | 3.23 | 0.20 | 54 | 952.1 |
| 20260506062515 | 43 | 230 | 2.6 | 5.2 | 0.00 | 3.23 | 0.20 | 48 | 952.1 |
| 20260506061516 | 45 | 285 | 0.9 | 2.6 | 0.00 | 3.23 | 0.20 | 45 | 952.1 |
| 20260506060515 | 45 | 243 | 0.9 | 1.7 | 0.00 | 3.23 | 0.20 | 46 | 952.1 |
| 20260506050515 | 41 | 312 | 1.7 | 2.6 | 0.00 | 3.23 | 0.20 | 55 | 951.8 |
| 20260506044515 | 40 | 281 | 2.6 | 4.3 | 0.00 | 3.23 | 0.20 | 57 | 951.6 |
| 20260506043515 | 40 | 244 | 2.6 | 3.5 | 0.00 | 3.23 | 0.20 | 57 | 951.6 |
| 20260506042515 | 40 | 318 | 2.6 | 3.5 | 0.00 | 3.23 | 0.20 | 56 | 951.5 |
| 20260506041515 | 40 | 356 | 1.7 | 3.5 | 0.00 | 3.23 | 0.20 | 56 | 951.4 |
| 20260506040515 | 40 | 304 | 1.7 | 2.6 | 0.00 | 3.23 | 0.20 | 59 | 951.4 |
| 20260506035515 | 39 | 283 | 2.6 | 3.5 | 0.00 | 3.23 | 0.20 | 60 | 951.3 |
| 20260506034515 | 39 | 277 | 2.6 | 5.2 | 0.00 | 3.23 | 0.20 | 61 | 951.2 |
| 20260506033516 | 39 | 276 | 2.6 | 4.3 | 0.00 | 3.23 | 0.20 | 62 | 951.2 |
| 20260506032515 | 39 | 280 | 5.2 | 6.1 | 0.00 | 3.23 | 0.20 | 62 | 951.1 |
| 20260506031515 | 39 | 287 | 7.0 | 8.7 | 0.00 | 3.23 | 0.20 | 62 | 951.1 |
| 20260506030515 | 39 | 288 | 7.8 | 9.6 | 0.00 | 3.23 | 0.20 | 62 | 951.1 |
| 20260506025515 | 39 | 291 | 7.8 | 9.6 | 0.00 | 3.23 | 0.20 | 62 | 951.1 |
| 20260506024514 | 39 | 290 | 7.8 | 9.6 | 0.00 | 3.23 | 0.20 | 62 | 951.1 |
| 20260506023515 | 39 | 300 | 7.8 | 9.6 | 0.00 | 3.23 | 0.20 | 61 | 951.1 |
| 20260506022514 | 39 | 306 | 7.8 | 9.6 | 0.00 | 3.44 | 0.20 | 61 | 951.1 |
| 20260506021515 | 39 | 297 | 8.7 | 10.4 | 0.00 | 3.44 | 0.20 | 60 | 951.1 |
| 20260506020515 | 39 | 301 | 7.8 | 9.6 | 0.00 | 3.44 | 0.20 | 60 | 951.1 |
| 20260506015515 | 39 | 305 | 7.8 | 9.6 | 0.00 | 3.44 | 0.20 | 59 | 951.1 |
| 20260506014515 | 39 | 302 | 8.7 | 10.4 | 0.00 | 3.44 | 0.20 | 59 | 951.1 |
| 20260506013515 | 40 | 283 | 7.8 | 9.6 | 0.00 | 3.44 | 0.20 | 59 | 951.1 |
| 20260506012536 | 40 | 288 | 8.7 | 10.4 | 0.00 | 3.44 | 0.20 | 59 | 951.1 |
| 20260506011515 | 40 | 286 | 8.7 | 11.3 | 0.00 | 3.44 | 0.20 | 58 | 951.1 |
| 20260506010536 | 40 | 286 | 8.7 | 10.4 | 0.00 | 3.44 | 0.20 | 58 | 951.1 |
| 20260506005515 | 40 | 287 | 8.7 | 10.4 | 0.00 | 3.44 | 0.20 | 57 | 951.2 |
| 20260506004516 | 40 | 288 | 9.6 | 11.3 | 0.00 | 3.44 | 0.20 | 57 | 951.1 |
| 20260506003515 | 40 | 291 | 8.7 | 10.4 | 0.00 | 3.44 | 0.20 | 57 | 951.2 |
| 20260506002515 | 40 | 300 | 7.0 | 8.7 | 0.00 | 3.44 | 0.20 | 56 | 951.3 |
| 20260506001515 | 40 | 308 | 6.1 | 7.8 | 0.00 | 3.44 | 0.20 | 55 | 951.3 |
| 20260506000515 | 40 | 301 | 5.2 | 7.0 | 0.00 | 3.44 | 0.20 | 55 | 951.4 |
| 20260505235516 | 41 | 302 | 6.1 | 7.8 | 0.00 | 3.44 | 0.20 | 53 | 951.5 |
| 20260505234515 | 41 | 314 | 5.2 | 6.1 | 0.00 | 3.44 | 0.20 | 53 | 951.6 |
| 20260505233515 | 41 | 314 | 6.1 | 7.8 | 0.00 | 3.44 | 0.20 | 52 | 951.6 |
| 20260505232515 | 41 | 304 | 7.0 | 8.7 | 0.00 | 3.44 | 0.20 | 52 | 951.6 |
| 20260505231515 | 41 | 294 | 7.0 | 9.6 | 0.00 | 3.44 | 0.20 | 52 | 951.7 |
| 20260505230535 | 41 | 292 | 7.0 | 8.7 | 0.00 | 3.44 | 0.20 | 51 | 951.7 |
| 20260505225515 | 41 | 296 | 6.1 | 7.8 | 0.00 | 3.44 | 0.20 | 51 | 951.7 |
| 20260505224536 | 41 | 307 | 5.2 | 7.0 | 0.00 | 3.44 | 0.20 | 50 | 951.9 |
| 20260505223515 | 41 | 322 | 5.2 | 6.1 | 0.00 | 3.44 | 0.20 | 50 | 951.9 |
| 20260505222515 | 41 | 309 | 5.2 | 7.0 | 0.20 | 3.44 | 0.20 | 50 | 951.8 |
| 20260505221515 | 41 | 310 | 6.1 | 7.8 | 0.20 | 3.44 | 0.20 | 50 | 951.8 |
| 20260505220535 | 41 | 312 | 7.0 | 8.7 | 0.20 | 3.44 | 0.20 | 50 | 951.9 |
| 20260505215515 | 41 | 302 | 6.1 | 7.0 | 0.20 | 3.44 | 0.20 | 50 | 951.9 |
| 20260505214535 | 41 | 297 | 6.1 | 7.8 | 0.20 | 3.44 | 0.20 | 50 | 952.0 |
| 20260505213515 | 41 | 306 | 6.1 | 7.8 | 0.20 | 3.44 | 0.20 | 50 | 952.1 |
| 20260505212516 | 42 | 292 | 7.8 | 9.6 | 0.00 | 3.25 | 0.00 | 50 | 952.0 |
| 20260505211515 | 42 | 286 | 8.7 | 9.6 | 0.00 | 3.25 | 0.00 | 50 | 951.9 |
| 20260505210515 | 42 | 283 | 9.6 | 11.3 | 0.00 | 3.25 | 0.00 | 50 | 952.0 |
| 20260505205515 | 42 | 280 | 10.4 | 11.3 | 0.00 | 3.25 | 3.25 | 50 | 952.0 |
| 20260505204515 | 41 | 278 | 8.7 | 11.3 | 0.00 | 3.48 | 3.24 | 50 | 952.0 |
| 20260505203515 | 41 | 269 | 7.0 | 9.6 | 0.00 | 3.48 | 3.24 | 51 | 952.0 |
| 20260505202516 | 41 | 271 | 5.2 | 7.8 | 0.00 | 3.48 | 3.24 | 53 | 952.0 |
| 20260505201515 | 41 | 263 | 6.1 | 7.0 | 0.00 | 3.48 | 3.24 | 53 | 952.1 |
| 20260505200515 | 40 | 236 | 2.6 | 3.5 | 0.00 | 3.48 | 3.24 | 56 | 951.9 |
| 20260505195515 | 40 | 168 | 2.6 | 2.6 | 0.00 | 3.48 | 3.24 | 61 | 952.0 |
| 20260505194515 | 40 | 154 | 2.6 | 3.5 | 0.00 | 3.48 | 3.24 | 61 | 952.1 |
| 20260505193515 | 40 | 147 | 3.5 | 4.3 | 0.00 | 3.48 | 3.24 | 62 | 952.0 |
| 20260505192516 | 40 | 137 | 4.3 | 5.2 | 0.00 | 3.48 | 3.24 | 63 | 951.9 |
| 20260505191515 | 40 | 140 | 5.2 | 6.1 | 0.00 | 3.48 | 3.24 | 63 | 951.8 |
| 20260505190515 | 40 | 139 | 5.2 | 7.0 | 0.00 | 3.48 | 3.24 | 62 | 951.8 |
| 20260505185515 | 40 | 143 | 6.1 | 7.8 | 0.00 | 3.48 | 3.24 | 62 | 951.8 |
| 20260505184515 | 40 | 138 | 4.3 | 7.0 | 0.00 | 3.48 | 3.24 | 62 | 951.7 |
| 20260505183515 | 40 | 140 | 4.3 | 7.0 | 0.00 | 6.04 | 3.24 | 62 | 951.6 |
| 20260505182514 | 40 | 142 | 3.5 | 4.3 | 0.00 | 6.04 | 3.24 | 61 | 951.6 |
| 20260505181515 | 40 | 142 | 3.5 | 4.3 | 0.00 | 6.04 | 3.24 | 61 | 951.6 |
| 20260505180516 | 40 | 147 | 4.3 | 6.1 | 0.00 | 6.04 | 3.24 | 59 | 951.4 |
| 20260505175535 | 40 | 146 | 5.2 | 6.1 | 0.00 | 6.04 | 3.24 | 59 | 951.4 |
| 20260505174515 | 40 | 155 | 4.3 | 6.1 | 0.00 | 6.04 | 3.24 | 59 | 951.4 |
| 20260505173516 | 41 | 139 | 4.3 | 7.0 | 0.00 | 6.04 | 3.24 | 57 | 951.4 |
| 20260505172515 | 41 | 95 | 5.2 | 7.0 | 0.00 | 6.04 | 3.24 | 57 | 951.5 |
| 20260505171516 | 41 | 79 | 4.3 | 6.1 | 0.00 | 6.04 | 3.24 | 56 | 951.6 |
| 20260505170515 | 41 | 96 | 5.2 | 7.0 | 0.00 | 6.04 | 3.24 | 56 | 951.6 |
| 20260505165515 | 41 | 79 | 5.2 | 7.0 | 0.00 | 6.04 | 3.24 | 56 | 951.6 |
| 20260505164535 | 42 | 77 | 5.2 | 7.8 | 0.00 | 6.04 | 3.24 | 56 | 951.6 |
| 20260505163515 | 42 | 82 | 5.2 | 6.1 | 0.00 | 6.04 | 3.24 | 56 | 951.6 |
| 20260505162515 | 42 | 86 | 6.1 | 8.7 | 0.00 | 6.04 | 3.24 | 56 | 951.6 |
| 20260505161515 | 42 | 59 | 4.3 | 6.1 | 0.00 | 6.04 | 3.24 | 54 | 951.7 |
| 20260505160536 | 42 | 60 | 2.6 | 4.3 | 0.00 | 6.04 | 3.24 | 53 | 951.8 |
| 20260505152515 | 42 | 87 | 5.2 | 8.7 | 0.00 | 6.04 | 3.24 | 56 | 951.9 |
| 20260505151514 | 42 | 70 | 5.2 | 9.6 | 0.00 | 6.04 | 3.24 | 55 | 952.1 |
| 20260505150515 | 44 | 35 | 4.3 | 12.2 | 0.00 | 6.04 | 3.24 | 52 | 952.0 |
| 20260505140515 | 41 | 74 | 6.1 | 10.4 | 0.00 | 6.04 | 3.24 | 55 | 952.1 |